Notices

What's New in latest Release from April 7th, 2021:

- Updated Glossary, including Speed of Maximum Gust, and Total Hourly Precipitation

- Updated national and regional climate services offices contacts and prices information

- Addition of station inventory lists for 1981-2010, 1971-2000, and 1961-1990 Normals.

If you haven't already, please take our survey and provide feedback about our website: https://eccc.sondage-survey.ca/f/LanguageSelection.aspx?s=442ca660-fcf1-47c0-95a9-59707d6fd709

Hourly Data Report for October 07, 2017

VICTORIA UNIVERSITY CS
BRITISH COLUMBIA

48°27'25.200" N
123°18'16.600" W
60.10 m
1018598
71783
WYJ

Download Data

Hourly Data (October 2017)
Hourly Data Report for October 7, 2017
TIME
LST
Temp Definition
°C
Dew Point Definition
°C
Rel Hum Definition
%
Precip. Amount Definition
mm

Wind Dir Definition
10's deg

Wind Spd Definition
km/h
Visibility Definition
km
Stn Press Definition
kPa
Hmdx Definition


Wind Chill Definition


Weather Definition


00:00 10.1 8.4 90 0.0 26 7   100.53     LegendNANA
01:00 10.0 8.4 90 0.0 26 7   100.53     LegendNANA
02:00 9.8 7.9 88 0.0 27 9   100.54     LegendNANA
03:00 9.8 7.7 86 0.0 25 8   100.59     LegendNANA
04:00 8.5 7.1 91 0.0 26 3   100.60     LegendNANA
05:00 9.1 7.5 90 0.0 25 5   100.59     LegendNANA
06:00 9.0 6.9 87 0.0 27 6   100.59     LegendNANA
07:00 9.7 8.1 90 0.0 27 6   100.58     LegendNANA
08:00 10.8 8.6 86 0.0 22 5   100.62     LegendNANA
09:00 11.5 8.5 82 0.0 25 8   100.66     LegendNANA
10:00 11.9 8.8 81 0.0 23 9   100.68     LegendNANA
11:00 12.2 8.3 77 0.0 23 10   100.69     LegendNANA
12:00 13.0 8.2 73 0.0 24 11   100.70     LegendNANA
13:00 13.3 7.6 68 0.0 23 10   100.68     LegendNANA
14:00 14.4 8.0 65 0.0 24 11   100.65     LegendNANA
15:00 13.8 6.9 63 0.0 24 8   100.65     LegendNANA
16:00 13.6 6.3 61 0.0 25 8   100.65     LegendNANA
17:00 13.3 6.7 64 0.0 25 8   100.65     LegendNANA
18:00 11.8 7.0 72 0.0 26 9   100.70     LegendNANA
19:00 11.2 7.3 77 0.0 25 6   100.71     LegendNANA
20:00 10.6 7.6 82 0.0 25 7   100.76     LegendNANA
21:00 9.2 7.4 89 0.0 26 4   100.82     LegendNANA
22:00 8.2 7.2 93 0.0 25 3   100.87     LegendNANA
23:00 8.0 6.9 92 0.0 25 3   100.92     LegendNANA

Notes on Data Quality.

Legend

  • E = Estimated
  • M = Missing
  • NA = Not Available*
  • [empty] = Indicates an unobserved value
Date modified: